Regional Weather Roundup
Issued by NWS Grand Forks, ND

Home | Current Version | Previous Version | Graphics & Text | Print | Product List | Glossary On
Versions: 1 2 3 4 5 6 7 8 9 10 11 12 13 14 15 16 17 18 19 20 21 22 23 24 25 26 27 28 29 30 31 32 33 34 35 36 37 38 39 40 41 42 43 44 45 46 47 48 49 50
000
ASUS43 KFGF 140410
RWRFGF
PRAIRIE TO PINES  WEATHER ROUNDUP
NATIONAL WEATHER SERVICE EASTERN NORTH DAKOTA/GRAND FORKS ND
1100 PM CDT SUN JUL 13 2014

 **SATELLITE DATA USED TO AUGMENT SKY COVER AT AUTOMATED STATIONS**
 *****  WEATHER ACROSS EASTERN NORTH DAKOTA  *****

CITY           SKY/WX    TMP DP  RH WIND       PRES   REMARKS
GRAND FORKS    MOCLDY    59  47  64 NW9       29.94S
GRAND FRKS AFB PTCLDY    59  47  64 NW12      29.96S
GRAND FRKS NWS   N/A     59 N/A N/A NW6         N/A
DEVILS LAKE    MOCLDY    59  45  58 NW18G24   30.00S
FARGO          CLOUDY    64  46  52 NW14      29.95S
WAHPETON ARPT  CLOUDY    63  45  51 N8        29.96S
$$

 ***** WEATHER ACROSS CENTRAL AND WESTERN NORTH DAKOTA  *****

CITY           SKY/WX    TMP DP  RH WIND       PRES   REMARKS
BISMARCK       CLEAR     63  45  51 N10       30.08R
MINOT          CLOUDY    60  46  59 N12       30.10R
JAMESTOWN      CLOUDY    63  45  51 NW15G22   30.01R
MINOT AFB      CLOUDY    61  48  63 N10       30.11R
GARRISON         N/A     57  49  74 N7        30.11R
WILLISTON      CLEAR     60  46  59 N9        30.18R
DICKINSON      CLEAR     59  41  51 N10       30.15R
HETTINGER      CLEAR     57  45  64 N9        30.16R
$$

 *****  OTHER AIRPORT OBSERVATIONS IN OUR AREA  *****

CITY           SKY/WX    TMP DP  RH WIND       PRES   REMARKS
WALHALLA         N/A     54  54 100 NW13G20     N/A
GRAFTON AIRPOR MOCLDY    54  54 100 N17       29.96R FOG
VALLEY CITY AR CLOUDY    61  46  59 NW12      30.00S
CANDO          CLOUDY    55  46  71 NW14G23   30.04R
CAVALIER APRT  FOG       54  50  87 N12G21    29.97R VSB 1
GWINNER        CLOUDY    64  48  55 N9        30.01R
SHEYENNE NWR     N/A     63  48  59 NW3       29.95S
ROLLA          CLOUDY    55  46  71 NW17G23   30.06R
 ***** THE ABOVE OBSERVATIONS ARE NON NWS ARE NOT QUALITY
       CONTROLLED AND MAY MIS-REPORT RAIN FOR SNOW...
$$

  *****  WEATHER ACROSS NORTHERN MINNESOTA  *****

CITY           SKY/WX    TMP DP  RH WIND       PRES   REMARKS
FLAG ISLAND    CLOUDY    52  50  93 NW21G26   29.82S
WARROAD        CLOUDY    50  46  87 W12G17    29.87R
ROSEAU         CLOUDY    52  46  82 W10G17    29.88S
HALLOCK        RAIN      54  52  94 NW15      29.93F
THF RVR FALLS  CLOUDY    57  46  67 NW12      29.92S
BAUDETTE       CLOUDY    51  49  92 VRB7G17   29.84S
WASKISH        CLOUDY    54  52  94 W20G25      N/A
CROOKSTON      CLOUDY    59  48  67 NW10      29.94S
$$
  *****  WEATHER ACROSS CENTRAL AND WEST MINNESOTA  *****

CITY           SKY/WX    TMP DP  RH WIND       PRES   REMARKS
FOSSTON        CLOUDY    55  46  71 NW10      29.93S
BEMIDJI        PTCLDY    53  49  86 W8        29.90S
PARK RAPIDS    CLOUDY    57  51  80 W5        29.92S
ELBOW LAKE     NOT AVBL
WADENA         CLOUDY    59  50  72 NW3       29.93S
DETROIT LAKES  PTCLDY    59  50  72 NW6       29.95S
MOORHEAD       CLOUDY    64  46  52 NW10      29.96S
FERGUS FALLS   CLOUDY    63  45  51 N9        29.95S
MORRIS MN      CLEAR     57  48  72 NW6       29.95S
STAPLES        CLOUDY    59  46  63 NW7       29.93S
$$
  *****  WEATHER ELSEWHERE ACROSS MINNESOTA  *****

CITY           SKY/WX    TMP DP  RH WIND       PRES   REMARKS
DULUTH         MOCLDY    56  48  74 NW7       29.87F
INTRNTL FALLS  CLOUDY    52  51  97 W5        29.80F
ELY            PTCLDY    50  48  93 W5        29.83F
CLOQUET        CLOUDY    55  46  71 W5        29.88F
WHEATON        PTCLDY    61  48  63 NW7       29.99R
BRAINERD       MOCLDY    64  49  57 N13       29.92R
HIBBING        MOCLDY    53  48  83 SW3       29.87F
ALEXANDRIA     PTCLDY    63  49  60 NW8       29.96R
SAINT CLOUD    MOCLDY    63  49  60 NW5       29.91R
MINNEAPOLIS    PTCLDY    67  49  52 SW6       29.90F
$$

  *****  WEATHER ACROSS SOUTH DAKOTA  *****

CITY           SKY/WX    TMP DP  RH WIND       PRES   REMARKS
SIOUX FALLS    CLEAR     62  49  62 NW8       30.00R
BROOKINGS      NOT AVBL
WATERTOWN      CLEAR     62  48  60 NW7       30.00R
HURON          CLEAR     57  49  74 NW7       30.02R
SISSETON         N/A     59  49  69 NW8       29.97R
ABERDEEN       CLEAR     56  44  64 NW7       30.02R
MITCHELL       CLEAR     61  51  70 NW8       30.03R
PIERRE         CLEAR     63  50  62 N7        30.06R
MOBRIDGE       CLEAR     57  49  74 N7        30.05R
RAPID CITY     CLEAR     64  52  64 N8        30.18R
$$

  *****  SOME WEATHER IN NEARBY STATES *****

CITY           SKY/WX    TMP DP  RH WIND       PRES   REMARKS
GLASGOW MT     CLEAR     61  42  49 NE9       30.21R
GREAT FALLS MT CLEAR     74  44  34 E7        30.23R
CHEYENNE WY    PTCLDY    64  55  72 W5        30.32R
SCOTTSBLUFF NE CLEAR     71  63  75 E3        30.17R
OMAHA NE       CLEAR     75  67  76 CALM      29.98S
DES MOINES IA  PTCLDY    75  64  68 W6        29.94S
DAVENPORT IA     N/A     66  63  90 CALM      29.93F
CHICAGO IL     PTCLDY    74  59  59 NW13      29.90R
EAU CLAIRE WI  CLEAR     60  55  83 S5        29.89S
LA CROSSE WI   PTCLDY    67  58  72 S6        29.90R
$$

  *****  SOME NATIONAL WEATHER *****

CITY           SKY/WX    TMP DP  RH WIND       PRES   REMARKS
LA GUARDIA NY  TSTM      75  68  78 NW20G30   29.95R
RALEIGH NC     PTCLDY    80  68  66 S8        30.03S
ATLANTA GA     MOCLDY    78  70  76 S3        30.08S
NEW ORLEANS LA PTCLDY    78  73  84 W6        30.05S
OKLAHOMA CITY  CLOUDY    85  62  46 N6        30.01R
ALBUQUERQUE NM CLOUDY    72  54  53 E14       30.26S
SALT LAKE CITY MOCLDY    86  50  28 W6        30.08R
LOS ANGELES CA PTCLDY    71  64  78 SW3       29.89R
BOISE ID       MOCLDY    95  47  19 CALM      29.93S HX  91
SEATTLE WA     CLOUDY    76  61  59 SW8       30.04F
$$

*** WEATHER ACROSS MANITOBA...SASKATCHEWAN AND ONTARIO ***
                ***ONTARIO***

CITY           SKY/WX    TMP DP  RH WIND       PRES   REMARKS
GERALDTON      MOCLDY    55  50  82 W7        29.73S
THUNDER BAY    LGT RAIN  57  54  88 W6        29.78S
SIOUX LOOKOUT  MOCLDY    50  48  93 N2        29.77F
TORONTO        PTCLDY    68  59  73 N17       29.87R
BIG TROUT LK   MOCLDY    54  48  82 NE10G20   29.85R
PICKLE LAKE    NOT AVBL
DRYDEN         LGT RAIN  50  48  93 W3        29.78R
KENORA         LGT RAIN  48  48 100 N15G25    29.81R FOG
$$
                *** MANITOBA***

CITY           SKY/WX    TMP DP  RH WIND       PRES   REMARKS
BRANDON        MOCLDY    55  48  76 NW14G21   30.06R
DAUPHIN        CLOUDY    55  54  94 N13G18    30.09R
ISLAND LAKE    LGT RAIN  52  50  93 N10       29.99R
PILOT MOUND      N/A     52  50  93 NW14G20     N/A
THE PAS        PTCLDY    57  52  82 NW6       30.18
THOMPSON       PTCLDY    55  52  88 N10G17    30.16R
WINNIPEG       MOCLDY    50  46  87 N16G24    29.96R
LYNN LAKE      CLEAR     54  48  82 N5        30.27R
CHURCHILL      MOCLDY    43  43 100 N10       30.23S
GILLAM         CLOUDY    50  48  93 N21       30.13
$$
                ***SASKATCHEWAN***

CITY           SKY/WX    TMP DP  RH WIND       PRES   REMARKS
ESTEVAN        PTCLDY    59  48  67 N13       30.18R
KINDERSLEY     CLEAR     57  48  72 NE6       30.29R
LLOYDMINSTER   CLEAR     59  45  58 E2        30.29R
PRINCE ALBERT  PTCLDY    57  48  72 NE8       30.27R
REGINA         PTCLDY    54  50  87 N6        30.23R
YORKTON        CLOUDY    57  46  67 N16G22    30.19R
N. BATTLEFORD  CLEAR     57  48  72 NE6       30.30R
LA RONGE       PTCLDY    57  48  72 CALM      30.30R
SASKATOON      CLEAR     57  48  72 N8        30.28R
SWIFT CURRENT  CLEAR     57  45  62 NE10G45   30.27R
$$
NOTE: THESE ARE AUTOMATED STATIONS WITH LIMITED QUALITY CONTROL
      "FAIR" INDICATES FEW OR NO CLOUDS BELOW 12,000 FEET WITH NO
      SIGNIFICANT WEATHER AND/OR OBSTRUCTIONS TO VISIBILITY.
      SKY/WX - SKY CONDITION AND SIGNIFICANT WEATHER.
      TMP - AIR TEMPERATURE.    DP   - DEWPOINT TEMPERATURE.
      RH  - RELATIVE HUMIDITY.  PRES - PRESSURE.
      HX  - HEAT INDEX.         WCI  - WIND CHILL INDEX.
$


USA.gov is the U.S. government's official web portal to all federal, state and local government web resources and services.